Weather History for Lyndonville, VT

Change the Weather History Date:

Monday, April 8, 2013

  Actual Average (K1V4) Record (K1V4)
Temperature  
Mean Temperature 44 °F 41 °F  
Max Temperature 51 °F 52 °F 80 °F (1991)
Min Temperature 37 °F 30 °F 10 °F (1972)
Degree Days  
Heating Degree Days 21 24  
Month to date heating degree days 204  
Since 1 July heating degree days 7004  
Cooling Degree Days 0 0  
Month to date cooling degree days 0  
Year to date cooling degree days 0  
Moisture  
Dew Point 27 °F    
Average Humidity 56    
Maximum Humidity 70    
Minimum Humidity 34    
Precipitation  
Precipitation 0.00 in 0.09 in 0.94 in (1912)
Month to date precipitation 0.72  
Year to date precipitation 7.91  
Sea Level Pressure  
Sea Level Pressure 30.04 in    
Wind  
Wind Speed 7 mph (WNW)    
Max Wind Speed 15 mph    
Max Gust Speed 23 mph    
Visibility 10 miles    
Events      
T = Trace of Precipitation, MM = Missing Value Source: NWS Daily Summary

Daily Weather History Graph

Daily Weather History Graph

Search for Another Location

Airport:

Trip Planner

Search our weather history database for the weather conditions in past years. The results will help you decide how hot, cold, wet, or windy it might be!

Date:

Astronomy

Apr. 08, 2013 Rise Set
Actual Time 6:15 AM EDT 7:24 PM EDT
Civil Twilight 5:46 AM EDT 7:54 PM EDT
Nautical Twilight 5:10 AM EDT 8:30 PM EDT
Astronomical Twilight 4:32 AM EDT 9:08 PM EDT
Moon 5:08 AM EDT (4/8) 5:53 PM EDT (4/8)
Length of Visible Light 14h 08m
Length of Day
13h 08m
Waning Crescent, 3% of the Moon is Illuminated
Apr 8
Waning Crescent
Apr 10
New
Apr 18
First Quarter
Apr 25
Full
May 2
Last Quarter

Hourly Weather History & Observations

Time (EDT) Temp. Windchill Dew Point Humidity Pressure Visibility Wind Dir Wind Speed Gust Speed Precip Events Conditions
12:15 AM 44.4 °F 38.2 °F 30.2 °F 57% 29.86 in 10.0 mi SSW 12.7 mph 16.1 mph N/A   Overcast
12:35 AM 43.7 °F 39.1 °F 30.6 °F 60% 29.87 in 10.0 mi South 8.1 mph - N/A   Overcast
12:55 AM 43.9 °F 39.9 °F 30.9 °F 60% 29.88 in 10.0 mi SSW 6.9 mph - N/A   Overcast
1:15 AM 43.7 °F 39.7 °F 31.3 °F 62% 29.89 in 10.0 mi SSW 6.9 mph - N/A   Overcast
1:35 AM 43.7 °F 39.1 °F 31.6 °F 63% 29.89 in 10.0 mi WSW 8.1 mph - N/A   Overcast
1:55 AM 43.0 °F 39.5 °F 31.5 °F 64% 29.91 in 10.0 mi West 5.8 mph - N/A   Overcast
2:15 AM 42.8 °F 41.1 °F 31.1 °F 63% 29.92 in 10.0 mi West 3.5 mph - N/A   Overcast
2:35 AM 42.4 °F 38.1 °F 31.1 °F 64% 29.92 in 10.0 mi WNW 6.9 mph - N/A   Overcast
2:55 AM 43.0 °F 36.8 °F 31.3 °F 63% 29.92 in 10.0 mi West 11.5 mph - N/A   Overcast
3:15 AM 42.8 °F 35.8 °F 31.1 °F 63% 29.92 in 10.0 mi West 13.8 mph 21.9 mph N/A   Mostly Cloudy
3:35 AM 42.8 °F 35.4 °F 30.9 °F 63% 29.93 in 10.0 mi West 15.0 mph 23.0 mph N/A   Mostly Cloudy
3:55 AM 41.9 °F 36.3 °F 30.9 °F 65% 29.94 in 10.0 mi WNW 9.2 mph - N/A   Overcast
4:15 AM 41.4 °F 34.7 °F 31.1 °F 67% 29.95 in 10.0 mi WNW 11.5 mph 16.1 mph N/A   Overcast
4:35 AM 41.0 °F 35.2 °F 30.9 °F 67% 29.96 in 10.0 mi WNW 9.2 mph - N/A   Overcast
4:55 AM 40.5 °F 34.6 °F 30.7 °F 68% 29.97 in 10.0 mi WNW 9.2 mph 23.0 mph N/A   Overcast
5:15 AM 40.5 °F 32.8 °F 30.9 °F 69% 29.97 in 10.0 mi WNW 13.8 mph 21.9 mph N/A   Overcast
5:35 AM 39.7 °F 32.3 °F 30.2 °F 69% 29.98 in 10.0 mi West 12.7 mph 18.4 mph N/A   Overcast
5:55 AM 39.6 °F 33.5 °F 30.2 °F 69% 29.99 in 10.0 mi WNW 9.2 mph 16.1 mph N/A   Overcast
6:15 AM 39.2 °F 32.0 °F 30.0 °F 70% 29.99 in 10.0 mi WNW 11.5 mph - N/A   Overcast
6:35 AM 38.7 °F 34.3 °F 29.5 °F 70% 30.01 in 10.0 mi WNW 5.8 mph - N/A   Overcast
6:55 AM 38.7 °F 32.9 °F 29.3 °F 69% 30.02 in 10.0 mi WNW 8.1 mph - N/A   Overcast
7:15 AM 38.5 °F 33.4 °F 29.3 °F 70% 30.03 in 10.0 mi WNW 6.9 mph - N/A   Overcast
7:35 AM 37.9 °F 33.5 °F 28.8 °F 70% 30.05 in 10.0 mi WNW 5.8 mph - N/A   Overcast
7:55 AM 37.8 °F 31.8 °F 28.6 °F 69% 30.06 in 10.0 mi West 8.1 mph - N/A   Overcast
8:15 AM 37.9 °F 32.7 °F 28.6 °F 69% 30.07 in 10.0 mi WNW 6.9 mph - N/A   Overcast
8:35 AM 37.9 °F 33.5 °F 28.4 °F 69% 30.07 in 10.0 mi NW 5.8 mph - N/A   Overcast
8:55 AM 37.8 °F 31.8 °F 28.4 °F 69% 30.08 in 10.0 mi NW 8.1 mph - N/A   Overcast
9:15 AM 37.4 °F 30.8 °F 28.0 °F 69% 30.09 in 10.0 mi NW 9.2 mph - N/A   Overcast
9:35 AM 37.9 °F 33.5 °F 28.0 °F 68% 30.09 in 10.0 mi WNW 5.8 mph - N/A   Overcast
9:55 AM 38.5 °F 33.4 °F 27.9 °F 66% 30.09 in 10.0 mi West 6.9 mph - N/A   Overcast
10:15 AM 38.7 °F 32.4 °F 28.0 °F 66% 30.10 in 10.0 mi West 9.2 mph - N/A   Overcast
10:35 AM 38.7 °F 32.4 °F 27.5 °F 64% 30.11 in 10.0 mi WNW 9.2 mph - N/A   Overcast
10:55 AM 39.2 °F 34.2 °F 27.5 °F 63% 30.10 in 10.0 mi WNW 6.9 mph - N/A   Overcast
11:15 AM 39.9 °F 36.7 °F 27.5 °F 61% 30.12 in 10.0 mi WNW 4.6 mph - N/A   Overcast
11:35 AM 40.5 °F 35.8 °F 27.3 °F 59% 30.13 in 10.0 mi West 6.9 mph - N/A   Overcast
11:55 AM 41.0 °F 35.2 °F 27.1 °F 58% 30.13 in 10.0 mi WNW 9.2 mph - N/A   Overcast
12:15 PM 41.0 °F 35.2 °F 27.0 °F 57% 30.13 in 10.0 mi NW 9.2 mph - N/A   Overcast
12:35 PM 42.1 °F 38.4 °F 27.1 °F 55% 30.13 in 10.0 mi NNW 5.8 mph - N/A   Overcast
12:55 PM 43.0 °F 37.2 °F 26.4 °F 52% 30.12 in 10.0 mi NW 10.4 mph - N/A   Overcast
1:15 PM 42.8 °F - 26.2 °F 52% 30.12 in 10.0 mi Calm Calm - N/A   Scattered Clouds
1:35 PM 45.1 °F 41.4 °F 26.4 °F 48% 30.11 in 10.0 mi North 6.9 mph - N/A   Scattered Clouds
1:55 PM 45.7 °F 42.7 °F 26.6 °F 47% 30.11 in 10.0 mi North 5.8 mph - N/A   Scattered Clouds
2:15 PM 46.0 °F 41.9 °F 26.1 °F 46% 30.10 in 10.0 mi NNE 8.1 mph - N/A   Clear
2:35 PM 46.8 °F - 26.1 °F 44% 30.10 in 10.0 mi NNE 3.5 mph - N/A   Clear
2:55 PM 48.6 °F - 26.1 °F 42% 30.08 in 10.0 mi North 4.6 mph - N/A   Clear
3:15 PM 47.7 °F - 25.0 °F 41% 30.07 in 10.0 mi Calm Calm - N/A   Clear
3:35 PM 49.3 °F - 25.9 °F 40% 30.08 in 10.0 mi West 3.5 mph - N/A   Clear
3:55 PM 50.2 °F - 24.3 °F 36% 30.08 in 10.0 mi WSW 5.8 mph - N/A   Clear
4:15 PM 50.2 °F - 23.2 °F 35% 30.08 in 10.0 mi West 4.6 mph - N/A   Clear
4:35 PM 50.9 °F - 23.5 °F 34% 30.08 in 10.0 mi NNW 4.6 mph - N/A   Clear
4:55 PM 51.1 °F - 24.1 °F 35% 30.06 in 10.0 mi Calm Calm - N/A   Clear
5:15 PM 50.9 °F - 23.2 °F 34% 30.07 in 10.0 mi Calm Calm - N/A   Clear
5:35 PM 50.9 °F - 23.4 °F 34% 30.07 in 10.0 mi Calm Calm - N/A   Clear
5:55 PM 50.0 °F - 23.7 °F 36% 30.06 in 10.0 mi North 4.6 mph - N/A   Clear
6:15 PM 50.0 °F - 23.2 °F 35% 30.06 in 10.0 mi NE 4.6 mph - N/A   Clear
6:35 PM 48.6 °F - 23.7 °F 38% 30.05 in 10.0 mi NE 4.6 mph - N/A   Clear
6:55 PM 47.8 °F - 23.0 °F 38% 30.05 in 10.0 mi Calm Calm - N/A   Clear
7:15 PM 47.3 °F - 23.5 °F 39% 30.05 in 10.0 mi Calm Calm - N/A   Clear
7:35 PM 46.4 °F - 23.4 °F 40% 30.06 in 10.0 mi Calm Calm - N/A   Clear
7:55 PM 43.9 °F - 23.7 °F 45% 30.05 in 10.0 mi Calm Calm - N/A   Clear
8:15 PM 45.7 °F - 23.9 °F 42% 30.06 in 10.0 mi Calm Calm - N/A   Clear
8:35 PM 44.6 °F 43.1 °F 23.7 °F 44% 30.07 in 10.0 mi NE 3.5 mph - N/A   Clear
8:55 PM 42.6 °F 39.9 °F 24.8 °F 49% 30.07 in 10.0 mi NNE 4.6 mph - N/A   Clear
9:15 PM 42.3 °F - 24.8 °F 50% 30.08 in 10.0 mi Calm Calm - N/A   Clear
9:35 PM 40.1 °F - 25.2 °F 55% 30.09 in 10.0 mi Calm Calm - N/A   Clear
9:55 PM 38.8 °F - 25.3 °F 58% 30.08 in 10.0 mi Calm Calm - N/A   Clear
10:15 PM 38.3 °F 35.9 °F 25.9 °F 61% 30.07 in 10.0 mi NE 3.5 mph - N/A   Clear
10:35 PM 38.5 °F - 25.9 °F 61% 30.06 in 10.0 mi Calm Calm - N/A   Clear
10:55 PM 37.2 °F 34.7 °F 25.5 °F 63% 30.05 in 10.0 mi WNW 3.5 mph - N/A   Clear
11:15 PM 39.4 °F - 25.5 °F 58% 30.04 in 10.0 mi Calm Calm - N/A   Clear
11:35 PM 38.3 °F - 25.3 °F 60% 30.02 in 10.0 mi Calm Calm - N/A   Clear
11:55 PM 38.7 °F 36.3 °F 25.5 °F 59% 30.02 in 10.0 mi West 3.5 mph - N/A   Mostly Cloudy